Location: Unspecified
(0.0000°N, 0.0000°E)
Time: 15:01:54
(UTC+00:00)

BEESAT 2 - Pass Details

Date: 16 December 2019
Orbit: 489 x 536 km, 64.9° (Epoch: 14 August)

Event Time Altitude Azimuth Distance (km) Brightness Sun altitude
Rises 18:28:14 0° 327° (NNW) 2,668 ? -7.5°
Reaches altitude 10° 18:30:29 10° 320° (NW) 1,783 ? -8.0°
Maximum altitude 18:34:17 42° 248° (WSW) 772 ? -8.9°
Drops below altitude 10° 18:38:07 10° 177° (S) 1,793 ? -9.7°
Sets 18:40:23 0° 170° (S) 2,684 ? -10.3°
